This demonstration page uses our WeatherBlox Daily Observations layout. Learn more.

Left ArrowRight Arrow

39.01783, -85.05884

Hourly Observations for December 24, 2016

Temp ( °F °C ) Dew Point ( °F °C ) Humidity (%) Winds ( mph kmh ) Pressure ( in mb ) Visibility ( mi km ) Precip ( " mm )
12:46 am 00:46 Cloudy with Light Rain 43 6 39 4 87 87 S 13 20 30.09 1019 5 8 N/A
12:52 am 00:52 Cloudy with Light Rain 42 5.6 40 4.4 92 92 S 13 20 30.05 1018 6 10 0.07 1.78
1:52 am 01:52 Cloudy with Light Rain 43 6.1 42 5.6 97 97 S 13 20 30.04 1017 4 6 0.04 1.02
2:52 am 02:52 Cloudy with Mist and Fog 44 6.7 43 6.1 96 96 S 15 24 30.04 1017 4 6 N/A
3:32 am 03:32 Cloudy with Mist and Fog 44 6.7 43 6.1 96 96 SSW 13 20 30.06 1018 3 4 N/A
3:52 am 03:52 Cloudy with Light Rain 44 6.7 43 6.1 96 96 SSW 13 20 30.04 1017 3 4 0.01 0.25
4:09 am 04:09 Cloudy with Light Rain 44 6.7 43 6.1 96 96 SSW 9 15 30.06 1018 3 4 N/A
4:52 am 04:52 Cloudy with Light Rain 44 6.7 43 6.1 96 96 SW 9 15 30.06 1018 2 3 0.01 0.25
5:52 am 05:52 Cloudy with Mist and Fog 45 7.2 44 6.7 97 97 WSW 6 9 30.07 1018 3 4 0.02 0.51
6:33 am 06:33 Cloudy with Mist and Fog 45 7.2 45 7.2 100 100 WSW 8 13 30.09 1019 3 5 N/A
6:43 am 06:43 Cloudy with Mist and Fog 45 7.2 45 7.2 100 100 WSW 6 9 30.09 1019 3 4 N/A
6:52 am 06:52 Cloudy with Mist and Fog 45 7.2 45 7.2 100 100 WSW 9 15 30.08 1019 3 4 N/A
7:09 am 07:09 Cloudy with Mist and Fog 45 7.2 45 7.2 100 100 WSW 6 9 30.12 1020 3 5 N/A
7:52 am 07:52 Cloudy with Mist and Fog 45 7.2 45 7.2 100 100 WSW 6 9 30.11 1020 3 5 0.01 0.25
8:52 am 08:52 Cloudy with Mist and Fog 45 7.2 44 6.7 97 97 W 12 19 30.16 1022 6 10 N/A
9:14 am 09:14 Cloudy with Light Rain 44 6.7 43 6.1 96 96 NNW 14 22 30.21 1023 3 4 N/A
9:52 am 09:52 Cloudy 43 6.1 42 5.6 97 97 NW 12 19 30.20 1023 7 11 0.01 0.25
10:52 am 10:52 Cloudy 44 6.7 42 5.6 93 93 NW 9 15 30.23 1024 9 14 N/A
11:52 am 11:52 Cloudy 44 6.7 41 5 89 89 NNW 8 13 30.24 1024 9 14 N/A
12:52 pm 12:52 Cloudy 43 6.1 39 3.9 86 86 N 8 13 30.24 1024 9 14 N/A
1:52 pm 13:52 Cloudy 44 6.7 36 2.2 73 73 NW 6 9 30.22 1023 10 16 N/A
2:52 pm 14:52 Cloudy 44 6.7 36 2.2 73 73 NNE 6 9 30.24 1024 10 16 N/A
3:52 pm 15:52 Cloudy 44 6.7 35 1.7 71 71 N N/A 30.25 1025 10 16 N/A
4:52 pm 16:52 Cloudy 43 6.1 35 1.7 74 74 N N/A 30.27 1025 10 16 N/A
5:52 pm 17:52 Cloudy 43 6.1 35 1.7 74 74 E 6 9 30.28 1025 10 16 N/A
6:52 pm 18:52 Cloudy 43 6.1 35 1.7 74 74 ESE 5 7 30.29 1026 10 16 N/A
7:52 pm 19:52 Cloudy 42 5.6 35 1.7 76 76 E 6 9 30.29 1026 10 16 N/A
8:52 pm 20:52 Cloudy 42 5.6 35 1.7 76 76 E 8 13 30.30 1026 10 16 N/A
9:52 pm 21:52 Cloudy 42 5.6 36 2.2 79 79 ESE 6 9 30.32 1027 10 16 N/A
10:52 pm 22:52 Cloudy 41 5 35 1.7 79 79 E 8 13 30.33 1027 10 16 N/A
11:52 pm 23:52 Cloudy 39 3.9 35 1.7 86 86 ENE 8 13 30.32 1027 10 16 N/A

Powered by AerisWeather